TimeEST,TemperatureF,Dew PointF,Humidity,Sea Level PressureIn,VisibilityMPH,Wind Direction,Wind SpeedMPH,Gust SpeedMPH,PrecipitationIn,Events,Conditions,WindDirDegrees,DateUTC
12:12 AM,30.2,30.2,100,30.50,2.5,Calm,Calm,-,N/A,,Mist,0,2012-11-17 05:12:00
12:35 AM,28.4,28.4,100,30.50,1.5,Calm,Calm,-,N/A,,Mist,0,2012-11-17 05:35:00
12:48 AM,28.4,26.6,93,30.50,2.5,Calm,Calm,-,N/A,,Mist,0,2012-11-17 05:48:00
12:56 AM,30.0,28.0,92,30.53,0.8,Calm,Calm,-,N/A,,Mist,0,2012-11-17 05:56:00
1:14 AM,26.6,26.6,100,30.50,0.2,Calm,Calm,-,N/A,Fog,Light Freezing Fog,0,2012-11-17 06:14:00
1:56 AM,26.1,26.1,100,30.54,0.2,Calm,Calm,-,0.00,Fog,Light Freezing Fog,0,2012-11-17 06:56:00
2:03 AM,24.8,24.8,100,30.50,0.2,Calm,Calm,-,N/A,Fog,Light Freezing Fog,0,2012-11-17 07:03:00
2:56 AM,25.0,24.1,96,30.55,0.2,Calm,Calm,-,N/A,Fog,Light Freezing Fog,0,2012-11-17 07:56:00
3:09 AM,24.8,23.0,93,30.52,0.2,Calm,Calm,-,N/A,Fog,Light Freezing Fog,0,2012-11-17 08:09:00
3:56 AM,25.0,23.0,92,30.55,0.2,Calm,Calm,-,N/A,Fog,Light Freezing Fog,0,2012-11-17 08:56:00
4:26 AM,24.8,21.2,86,30.52,0.8,Calm,Calm,-,N/A,,Clear,0,2012-11-17 09:26:00
4:54 AM,24.8,21.2,86,30.53,1.2,Calm,Calm,-,N/A,,Clear,0,2012-11-17 09:54:00
4:56 AM,25.0,21.9,88,30.57,1.5,Calm,Calm,-,N/A,,Clear,0,2012-11-17 09:56:00
5:12 AM,24.8,23.0,93,30.53,2.5,Calm,Calm,-,N/A,,Clear,0,2012-11-17 10:12:00
5:19 AM,24.8,23.0,93,30.53,3.0,Calm,Calm,-,N/A,,Clear,0,2012-11-17 10:19:00
5:41 AM,26.6,24.8,93,30.54,2.5,Calm,Calm,-,N/A,,Clear,0,2012-11-17 10:41:00
5:52 AM,24.8,21.2,86,30.54,3.0,Calm,Calm,-,N/A,,Clear,0,2012-11-17 10:52:00
5:56 AM,25.0,21.0,85,30.58,3.0,Calm,Calm,-,N/A,,Clear,0,2012-11-17 10:56:00
6:47 AM,26.6,24.8,93,30.55,2.5,Calm,Calm,-,N/A,,Clear,0,2012-11-17 11:47:00
6:56 AM,26.1,25.0,96,30.60,2.5,Calm,Calm,-,N/A,,Clear,0,2012-11-17 11:56:00
7:31 AM,24.8,23.0,93,30.57,1.5,Calm,Calm,-,N/A,,Clear,0,2012-11-17 12:31:00
7:43 AM,24.8,24.8,100,30.57,2.0,Calm,Calm,-,N/A,,Clear,0,2012-11-17 12:43:00
7:56 AM,26.1,24.1,92,30.62,1.8,Calm,Calm,-,N/A,,Clear,0,2012-11-17 12:56:00
8:13 AM,28.4,28.4,100,30.58,2.0,Calm,Calm,-,N/A,,Clear,0,2012-11-17 13:13:00
8:30 AM,30.2,30.2,100,30.58,1.5,Calm,Calm,-,N/A,,Clear,0,2012-11-17 13:30:00
8:47 AM,32.0,30.2,93,30.58,2.5,Calm,Calm,-,N/A,,Clear,0,2012-11-17 13:47:00
8:56 AM,33.1,32.0,96,30.62,3.0,Calm,Calm,-,N/A,,Clear,0,2012-11-17 13:56:00
9:56 AM,39.9,34.0,79,30.63,5.0,SE,3.5,-,N/A,,Haze,140,2012-11-17 14:56:00
10:56 AM,45.0,34.0,65,30.63,8.0,East,4.6,-,N/A,,Clear,100,2012-11-17 15:56:00
12:56 PM,51.1,33.1,50,30.60,10.0,ENE,6.9,-,N/A,,Clear,70,2012-11-17 17:56:00
1:56 PM,52.0,30.9,45,30.58,10.0,East,5.8,-,N/A,,Clear,80,2012-11-17 18:56:00
2:56 PM,53.1,28.9,40,30.57,10.0,ENE,6.9,-,N/A,,Clear,70,2012-11-17 19:56:00
3:56 PM,52.0,30.0,43,30.57,10.0,East,6.9,-,N/A,,Clear,80,2012-11-17 20:56:00
4:56 PM,46.0,30.0,54,30.57,10.0,East,4.6,-,N/A,,Clear,80,2012-11-17 21:56:00
5:56 PM,39.0,28.9,67,30.58,10.0,ENE,4.6,-,N/A,,Clear,70,2012-11-17 22:56:00
6:56 PM,37.9,28.0,68,30.58,10.0,ENE,4.6,-,N/A,,Clear,60,2012-11-17 23:56:00
7:56 PM,36.0,28.0,73,30.58,10.0,Calm,Calm,-,N/A,,Clear,0,2012-11-18 00:56:00
8:56 PM,34.0,27.0,75,30.58,10.0,Calm,Calm,-,N/A,,Clear,0,2012-11-18 01:56:00
9:56 PM,35.1,27.0,72,30.56,10.0,East,3.5,-,N/A,,Clear,90,2012-11-18 02:56:00
10:56 PM,33.1,27.0,78,30.56,10.0,Calm,Calm,-,N/A,,Clear,0,2012-11-18 03:56:00
11:56 PM,30.0,26.1,85,30.54,10.0,Calm,Calm,-,N/A,,Clear,0,2012-11-18 04:56:00